Overview Statistics Trail Chart Weather Telemetry Raw packets
 

This is the latest recevied weather packets stored in our database for station/object N0NB. If no packets are shown the sender has not sent any weather packets the latest 10 day(s).

<< 1 2 3 4 5 >>
Time Temp. Humidity Pressure Rain* Wind** Luminosity Snow
1788639917 36.67° C 46% 1012.6 hPa 0 mm - 679 W/m² -
1788639316 36.11° C 47% 1012.7 hPa 0 mm - 687 W/m² -
1788638716 36.11° C 48% 1012.7 hPa 0 mm - 163 W/m² -
1788638116 36.67° C 47% 1012.9 hPa 0 mm - 768 W/m² -
1788637516 36.11° C 49% 1013 hPa 0 mm - 752 W/m² -
1788636916 36.11° C 48% 1013 hPa 0 mm - 753 W/m² -
1788636316 36.67° C 49% 1013.1 hPa 0 mm - 745 W/m² -
1788635716 36.11° C 50% 1013.1 hPa 0 mm - 732 W/m² -
1788635141 36.11° C 49% 1013.1 hPa 0 mm - 737 W/m² -
1788634516 36.11° C 48% 1013.3 hPa 0 mm - 744 W/m² -
1788633916 36.11° C 49% 1013.3 hPa 0 mm - 752 W/m² -
1788633316 35.56° C 53% 1013.4 hPa 0 mm - 749 W/m² -
1788632716 35.56° C 52% 1013.4 hPa 0 mm - 751 W/m² -
1788632116 35° C 54% 1013.5 hPa 0 mm - 744 W/m² -
1788631516 35° C 51% 1013.5 hPa 0 mm - 744 W/m² -
1788630916 35° C 50% 1013.6 hPa 0 mm - 741 W/m² -
1788630316 34.44° C 52% 1013.7 hPa 0 mm - 734 W/m² -
1788629716 34.44° C 53% 1013.8 hPa 0 mm - 723 W/m² -
1788629116 33.89° C 53% 1013.8 hPa 0 mm - 710 W/m² -
1788628516 33.89° C 53% 1013.7 hPa 0 mm - 696 W/m² -
1788627916 33.89° C 55% 1013.7 hPa 0 mm - 694 W/m² -
1788627316 33.33° C 56% 1013.6 hPa 0 mm - 655 W/m² -
1788626716 33.33° C 56% 1013.7 hPa 0 mm - 657 W/m² -
1788626116 32.78° C 56% 1013.7 hPa 0 mm - 637 W/m² -
1788625516 32.78° C 59% 1013.7 hPa 0 mm - 636 W/m² -

* Rain latest hour (hover to see other rain measurements)
** Current wind speed in m/s (hover to see current wind gust speed)